sat.trackr.live / text

‹ back to catalog

STARLINK-32656

NORAD 62452 · 2024-251W

PAYLOAD ACTIVE UNKNOWN

§ Identity

Operator
Country
US
Launch date
2024-12-29
Launch site
AFWTR
Launch vehicle
Mass (kg)
RCS (m²)

Purposes: comms

External: N2YO · Heavens-Above · Gunter

§ Orbital elements

Epoch: 2026-09-21T20:32:07.086912Z

Period
93.85 min
Inclination
53.1593°
Eccentricity
0.0000928
Mean motion
15.34405691 rev/d
Perigee alt
462.1 km
Apogee alt
463.3 km
Semi-major
6,840.8 km
B*
7.2350e-4
RAAN
141.1977°
Arg perigee
86.8399°
Mean anomaly
273.2710°
Rev number
9,786

§ Raw data

STARLINK-326561 62452U 24251W   26264.85563758  .00024151  00000+0  72350-3 0  99922 62452  53.1593 141.1977 0000928  86.8399 273.2710 15.34405691 97869

JSON: /api/v1/satellites/62452 · /tle

For live sub-satellite position, see the globe view (requires WebGL).

§ Visibility from observer

Set your observer location to see the next 7 days of passes ≥ 10°. The values pass through the URL so the page stays shareable.

No JS? Fill the form by hand. The geolocation button needs JavaScript.